Location: Newark
(31.8769°N, 91.1411°W)
Time: 06:36:12
(UTC+00:00)

N. Korean satellite - Pass Details

Date: 31 January 2020
Orbit: 456 x 505 km, 97.2° (Epoch: 27 February)

Event Time Altitude Azimuth Distance (km) Brightness Sun altitude
Rises 11:03:56 0° 28° (NNE) 2,569 10.5 -24.6°
Reaches altitude 10° 11:06:22 10° 45° (NE) 1,692 9.8 -24.0°
Maximum altitude 11:09:12 21° 96° (E) 1,151 9.3 -23.4°
Drops below altitude 10° 11:12:03 10° 147° (SSE) 1,699 9.8 -22.8°
Sets 11:14:30 0° 164° (SSE) 2,583 10.6 -22.3°
